Time,TemperatureF,DewpointF,PressureIn,WindDirection,WindDirectionDegrees,WindSpeedMPH,WindSpeedGustMPH,Humidity,HourlyPrecipIn,Conditions,Clouds,dailyrainin,SoftwareType,DateUTC
2013-05-08 00:01:00,51.5,52.0,30.21,SE,135,4.9,6.5,99,0.00,,,0.00,Rainwise IP-100,2013-05-08 04:01:00,
2013-05-08 00:04:00,51.1,51.0,30.21,East,90,4.2,8.2,99,0.00,,,0.00,Rainwise IP-100,2013-05-08 04:04:00,
2013-05-08 00:10:00,50.8,51.0,30.21,ESE,112,3.0,6.1,99,0.00,,,0.00,Rainwise IP-100,2013-05-08 04:10:00,
2013-05-08 00:15:00,50.7,50.5,30.21,SE,135,2.6,4.7,100,0.00,,,0.00,Rainwise IP-100,2013-05-08 04:15:00,
2013-05-08 00:20:00,50.6,50.5,30.21,SE,135,2.1,3.5,100,0.00,,,0.00,Rainwise IP-100,2013-05-08 04:20:00,
2013-05-08 00:25:00,50.7,50.5,30.21,SE,135,0.0,3.0,100,0.00,,,0.00,Rainwise IP-100,2013-05-08 04:25:00,
2013-05-08 00:30:00,50.7,50.5,30.21,SE,135,4.4,5.1,100,0.00,,,0.00,Rainwise IP-100,2013-05-08 04:30:00,
2013-05-08 00:35:00,50.8,51.0,30.21,East,90,4.0,6.1,100,0.00,,,0.00,Rainwise IP-100,2013-05-08 04:35:00,
2013-05-08 00:40:00,50.9,51.0,30.21,SE,135,0.0,4.9,100,0.00,,,0.00,Rainwise IP-100,2013-05-08 04:40:00,
2013-05-08 00:45:00,50.8,51.0,30.21,SE,135,0.0,3.3,100,0.00,,,0.00,Rainwise IP-100,2013-05-08 04:45:00,
2013-05-08 00:50:00,50.7,50.5,30.20,East,90,0.0,2.8,100,0.00,,,0.00,Rainwise IP-100,2013-05-08 04:50:00,
2013-05-08 00:55:00,50.6,50.5,30.21,NE,45,0.0,2.3,100,0.00,,,0.00,Rainwise IP-100,2013-05-08 04:55:00,
2013-05-08 01:00:00,50.5,50.5,30.21,NNE,22,0.0,1.4,100,0.00,,,0.00,Rainwise IP-100,2013-05-08 05:00:00,
2013-05-08 01:05:00,50.6,50.5,30.20,SSE,157,0.0,2.6,100,0.00,,,0.00,Rainwise IP-100,2013-05-08 05:05:00,
2013-05-08 01:10:00,50.7,50.5,30.20,ESE,112,2.3,3.0,100,0.00,,,0.00,Rainwise IP-100,2013-05-08 05:10:00,
2013-05-08 01:15:00,50.7,50.5,30.20,ESE,112,3.3,5.6,100,0.00,,,0.00,Rainwise IP-100,2013-05-08 05:15:00,
2013-05-08 01:20:00,50.6,50.5,30.20,ESE,112,0.0,3.5,100,0.00,,,0.00,Rainwise IP-100,2013-05-08 05:20:00,
2013-05-08 01:25:00,50.7,50.5,30.20,ENE,67,0.0,1.6,100,0.00,,,0.00,Rainwise IP-100,2013-05-08 05:25:00,
2013-05-08 01:30:00,50.9,51.0,30.20,NE,45,0.0,2.3,100,0.00,,,0.00,Rainwise IP-100,2013-05-08 05:30:00,
2013-05-08 01:35:00,51.2,51.0,30.20,SE,135,1.2,2.1,100,0.00,,,0.00,Rainwise IP-100,2013-05-08 05:35:00,
2013-05-08 01:40:00,51.3,51.0,30.20,South,180,1.6,4.4,100,0.00,,,0.00,Rainwise IP-100,2013-05-08 05:40:00,
2013-05-08 01:45:00,51.0,51.0,30.20,SE,135,3.7,3.7,100,0.00,,,0.00,Rainwise IP-100,2013-05-08 05:45:00,
2013-05-08 01:50:00,50.9,51.0,30.20,SE,135,4.0,4.4,100,0.00,,,0.00,Rainwise IP-100,2013-05-08 05:50:00,
2013-05-08 01:55:00,51.1,51.0,30.20,South,180,4.0,5.1,100,0.00,,,0.00,Rainwise IP-100,2013-05-08 05:55:00,
2013-05-08 02:00:00,50.9,51.0,30.20,SE,135,3.3,5.4,100,0.00,,,0.00,Rainwise IP-100,2013-05-08 06:00:00,
2013-05-08 02:05:00,50.5,50.5,30.20,SE,135,5.6,5.6,100,0.00,,,0.00,Rainwise IP-100,2013-05-08 06:05:00,
2013-05-08 02:10:00,50.5,50.5,30.20,SSE,157,1.4,5.6,100,0.00,,,0.00,Rainwise IP-100,2013-05-08 06:10:00,
2013-05-08 02:15:00,50.4,50.5,30.20,ESE,112,2.8,4.2,100,0.00,,,0.00,Rainwise IP-100,2013-05-08 06:15:00,
2013-05-08 02:20:00,50.3,50.5,30.20,South,180,1.2,4.0,100,0.00,,,0.00,Rainwise IP-100,2013-05-08 06:20:00,
2013-05-08 02:25:00,50.3,50.5,30.20,SSE,157,3.5,4.4,100,0.00,,,0.00,Rainwise IP-100,2013-05-08 06:25:00,
2013-05-08 02:30:00,50.2,50.0,30.21,ESE,112,3.7,6.3,100,0.00,,,0.00,Rainwise IP-100,2013-05-08 06:30:00,
2013-05-08 02:35:00,50.0,50.0,30.20,South,180,2.6,5.4,100,0.00,,,0.00,Rainwise IP-100,2013-05-08 06:35:00,
2013-05-08 02:40:00,49.7,50.0,30.20,South,180,4.2,5.4,100,0.00,,,0.00,Rainwise IP-100,2013-05-08 06:40:00,
2013-05-08 02:45:00,49.4,49.0,30.20,SE,135,3.7,5.4,100,0.00,,,0.00,Rainwise IP-100,2013-05-08 06:45:00,
2013-05-08 02:50:00,49.2,49.0,30.20,SE,135,2.6,8.6,100,0.00,,,0.00,Rainwise IP-100,2013-05-08 06:50:00,
2013-05-08 02:55:00,49.0,49.0,30.20,SSE,157,3.7,7.9,100,0.00,,,0.00,Rainwise IP-100,2013-05-08 06:55:00,
2013-05-08 03:00:00,49.0,49.0,30.20,ESE,112,2.8,7.5,100,0.00,,,0.00,Rainwise IP-100,2013-05-08 07:00:00,
2013-05-08 03:05:00,49.3,49.0,30.20,ESE,112,4.9,6.5,100,0.00,,,0.00,Rainwise IP-100,2013-05-08 07:05:00,
2013-05-08 03:10:00,49.5,50.0,30.20,SE,135,2.1,6.8,100,0.00,,,0.00,Rainwise IP-100,2013-05-08 07:10:00,
2013-05-08 03:15:00,49.3,49.0,30.20,SE,135,4.9,6.8,100,0.00,,,0.00,Rainwise IP-100,2013-05-08 07:15:00,
2013-05-08 03:20:00,49.0,49.0,30.20,SSE,157,5.6,6.3,100,0.00,,,0.00,Rainwise IP-100,2013-05-08 07:20:00,
2013-05-08 03:25:00,48.7,49.0,30.20,ESE,112,2.6,5.8,100,0.00,,,0.00,Rainwise IP-100,2013-05-08 07:25:00,
2013-05-08 03:30:00,48.6,49.0,30.20,ESE,112,2.1,5.8,100,0.00,,,0.00,Rainwise IP-100,2013-05-08 07:30:00,
2013-05-08 03:35:00,48.6,49.0,30.20,South,180,4.2,7.0,100,0.00,,,0.00,Rainwise IP-100,2013-05-08 07:35:00,
2013-05-08 03:40:00,48.5,49.0,30.20,SE,135,4.0,5.6,100,0.00,,,0.00,Rainwise IP-100,2013-05-08 07:40:00,
2013-05-08 03:45:00,48.4,48.0,30.20,SSE,157,5.1,7.5,100,0.00,,,0.00,Rainwise IP-100,2013-05-08 07:45:00,
2013-05-08 03:50:00,48.4,48.0,30.20,ESE,112,4.4,7.7,100,0.00,,,0.00,Rainwise IP-100,2013-05-08 07:50:00,
2013-05-08 03:55:00,48.4,48.0,30.20,SE,135,7.2,10.7,100,0.00,,,0.00,Rainwise IP-100,2013-05-08 07:55:00,
2013-05-08 04:00:00,48.3,48.0,30.20,ESE,112,7.9,11.7,100,0.00,,,0.00,Rainwise IP-100,2013-05-08 08:00:00,
2013-05-08 04:05:00,48.3,48.0,30.20,SE,135,5.4,7.9,100,0.00,,,0.00,Rainwise IP-100,2013-05-08 08:05:00,
2013-05-08 04:10:00,48.4,48.0,30.20,SE,135,3.5,5.8,100,0.00,,,0.00,Rainwise IP-100,2013-05-08 08:10:00,
2013-05-08 04:15:00,48.3,48.0,30.20,SE,135,2.8,8.4,100,0.00,,,0.00,Rainwise IP-100,2013-05-08 08:15:00,
2013-05-08 04:20:00,48.2,48.0,30.20,SE,135,2.1,6.5,100,0.00,,,0.00,Rainwise IP-100,2013-05-08 08:20:00,
2013-05-08 04:25:00,48.2,48.0,30.20,SE,135,8.2,9.1,100,0.00,,,0.00,Rainwise IP-100,2013-05-08 08:25:00,
2013-05-08 04:30:00,48.2,48.0,30.20,ESE,112,4.7,10.0,100,0.00,,,0.00,Rainwise IP-100,2013-05-08 08:30:00,
2013-05-08 04:35:00,48.2,48.0,30.20,SE,135,6.5,8.2,100,0.00,,,0.00,Rainwise IP-100,2013-05-08 08:35:00,
2013-05-08 04:40:00,48.2,48.0,30.20,South,180,2.8,10.7,100,0.00,,,0.00,Rainwise IP-100,2013-05-08 08:40:00,
2013-05-08 04:45:00,48.0,48.0,30.20,SE,135,5.4,6.3,100,0.00,,,0.00,Rainwise IP-100,2013-05-08 08:45:00,
2013-05-08 04:50:00,47.9,48.0,30.21,SE,135,6.5,7.9,100,0.00,,,0.00,Rainwise IP-100,2013-05-08 08:50:00,
2013-05-08 04:55:00,48.0,48.0,30.21,SE,135,7.5,10.5,100,0.00,,,0.00,Rainwise IP-100,2013-05-08 08:55:00,
2013-05-08 05:00:00,48.1,48.0,30.20,SE,135,3.3,9.8,100,0.00,,,0.00,Rainwise IP-100,2013-05-08 09:00:00,
2013-05-08 05:05:00,47.9,48.0,30.21,SE,135,6.3,8.6,100,0.00,,,0.00,Rainwise IP-100,2013-05-08 09:05:00,
2013-05-08 05:10:00,47.9,48.0,30.21,ESE,112,5.1,7.7,100,0.00,,,0.00,Rainwise IP-100,2013-05-08 09:10:00,
2013-05-08 05:15:00,48.1,48.0,30.21,ESE,112,5.6,6.8,100,0.00,,,0.00,Rainwise IP-100,2013-05-08 09:15:00,
2013-05-08 05:20:00,48.2,48.0,30.21,ESE,112,5.6,10.5,100,0.00,,,0.00,Rainwise IP-100,2013-05-08 09:20:00,
2013-05-08 05:25:00,48.3,48.0,30.22,ENE,67,0.0,9.8,100,0.00,,,0.00,Rainwise IP-100,2013-05-08 09:25:00,
2013-05-08 05:30:00,48.5,49.0,30.22,South,180,1.6,6.1,100,0.00,,,0.00,Rainwise IP-100,2013-05-08 09:30:00,
2013-05-08 05:35:00,48.4,48.0,30.22,SE,135,1.6,3.0,100,0.00,,,0.00,Rainwise IP-100,2013-05-08 09:35:00,
2013-05-08 05:40:00,48.2,48.0,30.22,SSE,157,2.1,4.0,100,0.00,,,0.00,Rainwise IP-100,2013-05-08 09:40:00,
2013-05-08 05:45:00,48.2,48.0,30.22,East,90,5.4,7.5,100,0.00,,,0.00,Rainwise IP-100,2013-05-08 09:45:00,
2013-05-08 05:50:00,48.4,48.0,30.22,ENE,67,0.0,7.2,100,0.00,,,0.00,Rainwise IP-100,2013-05-08 09:50:00,
2013-05-08 05:55:00,48.5,49.0,30.22,NE,45,0.0,2.8,100,0.00,,,0.00,Rainwise IP-100,2013-05-08 09:55:00,
2013-05-08 06:00:00,48.7,49.0,30.23,NNE,22,0.0,1.2,100,0.00,,,0.00,Rainwise IP-100,2013-05-08 10:00:00,
2013-05-08 06:05:00,48.7,49.0,30.24,East,90,4.4,6.1,100,0.00,,,0.00,Rainwise IP-100,2013-05-08 10:05:00,
2013-05-08 06:10:00,48.6,49.0,30.24,ENE,67,1.2,4.9,100,0.00,,,0.00,Rainwise IP-100,2013-05-08 10:10:00,
2013-05-08 06:15:00,48.7,49.0,30.24,SW,225,0.0,1.4,100,0.00,,,0.00,Rainwise IP-100,2013-05-08 10:15:00,
2013-05-08 06:20:00,48.7,49.0,30.24,ESE,112,2.8,5.8,100,0.00,,,0.00,Rainwise IP-100,2013-05-08 10:20:00,
2013-05-08 06:25:00,48.3,48.0,30.24,ESE,112,2.8,5.4,100,0.00,,,0.00,Rainwise IP-100,2013-05-08 10:25:00,
2013-05-08 06:30:00,48.1,48.0,30.24,SW,225,0.0,4.9,100,0.00,,,0.00,Rainwise IP-100,2013-05-08 10:30:00,
2013-05-08 06:35:00,48.1,48.0,30.25,SE,135,1.9,4.4,100,0.00,,,0.00,Rainwise IP-100,2013-05-08 10:35:00,
2013-05-08 06:40:00,48.2,48.0,30.25,SE,135,1.6,4.7,100,0.00,,,0.00,Rainwise IP-100,2013-05-08 10:40:00,
2013-05-08 06:45:00,48.2,48.0,30.26,ESE,112,4.4,4.4,100,0.00,,,0.00,Rainwise IP-100,2013-05-08 10:45:00,
2013-05-08 06:50:00,48.1,48.0,30.25,SSE,157,1.2,4.9,100,0.00,,,0.00,Rainwise IP-100,2013-05-08 10:50:00,
2013-05-08 06:55:00,48.1,48.0,30.26,ESE,112,2.6,2.8,100,0.00,,,0.00,Rainwise IP-100,2013-05-08 10:55:00,
2013-05-08 07:00:00,48.1,48.0,30.26,ESE,112,2.3,3.3,100,0.00,,,0.00,Rainwise IP-100,2013-05-08 11:00:00,
2013-05-08 07:05:00,48.0,48.0,30.26,ESE,112,4.4,4.7,100,0.00,,,0.00,Rainwise IP-100,2013-05-08 11:05:00,
2013-05-08 07:07:00,47.9,48.0,30.26,ESE,112,2.6,4.9,100,0.00,,,0.00,Rainwise IP-100,2013-05-08 11:07:00,
2013-05-08 07:09:00,47.9,48.0,30.25,ESE,112,2.1,4.9,100,0.00,,,0.00,Rainwise IP-100,2013-05-08 11:09:00,
2013-05-08 07:14:00,47.8,48.0,30.26,ESE,112,4.4,5.1,100,0.00,,,0.00,Rainwise IP-100,2013-05-08 11:14:00,
2013-05-08 07:19:00,47.8,48.0,30.26,SE,135,3.7,5.8,100,0.00,,,0.00,Rainwise IP-100,2013-05-08 11:19:00,
2013-05-08 07:24:00,47.7,47.5,30.27,ESE,112,5.4,7.7,100,0.00,,,0.00,Rainwise IP-100,2013-05-08 11:24:00,
2013-05-08 07:29:00,47.9,48.0,30.27,SSE,157,2.1,6.3,100,0.00,,,0.00,Rainwise IP-100,2013-05-08 11:29:00,
2013-05-08 07:34:00,48.2,48.0,30.27,SW,225,0.0,5.1,100,0.00,,,0.00,Rainwise IP-100,2013-05-08 11:34:00,
2013-05-08 07:39:00,48.2,48.0,30.27,SE,135,7.5,7.5,100,0.00,,,0.00,Rainwise IP-100,2013-05-08 11:39:00,
2013-05-08 07:44:00,48.0,48.0,30.27,ESE,112,4.7,7.5,100,0.00,,,0.00,Rainwise IP-100,2013-05-08 11:44:00,
2013-05-08 07:50:00,47.8,48.0,30.27,ESE,112,3.5,7.5,100,0.00,,,0.00,Rainwise IP-100,2013-05-08 11:50:00,
2013-05-08 07:55:00,47.8,48.0,30.27,ESE,112,5.1,8.4,100,0.00,,,0.00,Rainwise IP-100,2013-05-08 11:55:00,
2013-05-08 08:00:00,48.0,48.0,30.28,ESE,112,4.2,7.2,100,0.00,,,0.00,Rainwise IP-100,2013-05-08 12:00:00,
2013-05-08 08:05:00,48.0,48.0,30.28,SE,135,4.9,8.6,100,0.00,,,0.00,Rainwise IP-100,2013-05-08 12:05:00,
2013-05-08 08:10:00,48.0,48.0,30.28,ESE,112,5.4,8.6,100,0.00,,,0.00,Rainwise IP-100,2013-05-08 12:10:00,
2013-05-08 08:15:00,48.2,48.0,30.28,SE,135,6.5,9.8,100,0.00,,,0.00,Rainwise IP-100,2013-05-08 12:15:00,
2013-05-08 08:20:00,48.4,48.0,30.28,SE,135,4.2,8.6,100,0.00,,,0.00,Rainwise IP-100,2013-05-08 12:20:00,
2013-05-08 08:25:00,48.7,49.0,30.28,ESE,112,3.3,8.6,100,0.00,,,0.00,Rainwise IP-100,2013-05-08 12:25:00,
2013-05-08 08:30:00,48.9,49.0,30.28,ESE,112,7.5,8.6,100,0.00,,,0.00,Rainwise IP-100,2013-05-08 12:30:00,
2013-05-08 08:35:00,48.9,49.0,30.29,ESE,112,6.8,9.6,100,0.00,,,0.00,Rainwise IP-100,2013-05-08 12:35:00,
2013-05-08 08:40:00,48.9,49.0,30.28,ESE,112,4.7,9.1,100,0.00,,,0.00,Rainwise IP-100,2013-05-08 12:40:00,
2013-05-08 08:45:00,49.1,49.0,30.29,ESE,112,6.5,7.9,100,0.00,,,0.00,Rainwise IP-100,2013-05-08 12:45:00,
2013-05-08 08:50:00,49.2,49.0,30.29,SE,135,6.1,8.9,100,0.00,,,0.00,Rainwise IP-100,2013-05-08 12:50:00,
2013-05-08 08:55:00,49.4,49.0,30.29,SE,135,8.9,9.3,100,0.00,,,0.00,Rainwise IP-100,2013-05-08 12:55:00,
2013-05-08 09:00:00,49.7,50.0,30.29,SE,135,4.2,10.0,100,0.00,,,0.00,Rainwise IP-100,2013-05-08 13:00:00,
2013-05-08 09:05:00,50.0,50.0,30.29,SSE,157,4.4,11.0,100,0.00,,,0.00,Rainwise IP-100,2013-05-08 13:05:00,
2013-05-08 09:10:00,50.3,50.5,30.29,SE,135,3.5,9.3,100,0.00,,,0.00,Rainwise IP-100,2013-05-08 13:10:00,
2013-05-08 09:15:00,50.6,50.5,30.29,SE,135,4.2,9.6,100,0.00,,,0.00,Rainwise IP-100,2013-05-08 13:15:00,
2013-05-08 09:20:00,50.9,51.0,30.30,SE,135,3.3,7.9,100,0.00,,,0.00,Rainwise IP-100,2013-05-08 13:20:00,
2013-05-08 09:25:00,51.2,51.0,30.30,SE,135,5.8,8.4,100,0.00,,,0.00,Rainwise IP-100,2013-05-08 13:25:00,
2013-05-08 09:30:00,51.6,52.0,30.30,SE,135,5.4,7.9,100,0.00,,,0.00,Rainwise IP-100,2013-05-08 13:30:00,
2013-05-08 09:35:00,51.9,52.0,30.30,SSE,157,9.6,10.3,100,0.00,,,0.00,Rainwise IP-100,2013-05-08 13:35:00,
2013-05-08 09:40:00,52.0,52.0,30.30,SSE,157,7.7,9.6,100,0.00,,,0.00,Rainwise IP-100,2013-05-08 13:40:00,
2013-05-08 09:45:00,52.3,52.0,30.30,South,180,5.4,8.9,99,0.00,,,0.00,Rainwise IP-100,2013-05-08 13:45:00,
2013-05-08 09:50:00,52.6,53.0,30.30,SE,135,4.2,9.1,99,0.00,,,0.00,Rainwise IP-100,2013-05-08 13:50:00,
2013-05-08 09:55:00,52.8,53.0,30.30,SSE,157,6.1,9.3,99,0.00,,,0.00,Rainwise IP-100,2013-05-08 13:55:00,
2013-05-08 10:00:00,52.8,53.0,30.30,SE,135,5.4,7.7,99,0.00,,,0.00,Rainwise IP-100,2013-05-08 14:00:00,
2013-05-08 10:05:00,53.0,53.0,30.30,ESE,112,6.1,7.2,99,0.00,,,0.00,Rainwise IP-100,2013-05-08 14:05:00,
2013-05-08 10:10:00,53.3,53.0,30.30,SE,135,4.0,7.9,98,0.00,,,0.00,Rainwise IP-100,2013-05-08 14:10:00,
2013-05-08 10:15:00,53.2,52.0,30.30,ESE,112,5.8,7.7,98,0.00,,,0.00,Rainwise IP-100,2013-05-08 14:15:00,
2013-05-08 10:20:00,52.5,52.0,30.30,ESE,112,6.1,8.9,98,0.00,,,0.00,Rainwise IP-100,2013-05-08 14:20:00,
2013-05-08 10:25:00,51.5,51.0,30.30,SE,135,7.9,10.5,98,0.00,,,0.00,Rainwise IP-100,2013-05-08 14:25:00,
2013-05-08 10:30:00,51.2,50.5,30.30,SE,135,9.1,10.5,98,0.00,,,0.00,Rainwise IP-100,2013-05-08 14:30:00,
2013-05-08 10:35:00,51.7,52.0,30.30,SE,135,8.2,10.5,99,0.00,,,0.00,Rainwise IP-100,2013-05-08 14:35:00,
2013-05-08 10:40:00,52.2,52.0,30.30,SE,135,4.9,10.3,99,0.00,,,0.00,Rainwise IP-100,2013-05-08 14:40:00,
2013-05-08 10:45:00,52.6,52.0,30.30,SE,135,5.1,8.2,98,0.00,,,0.00,Rainwise IP-100,2013-05-08 14:45:00,
2013-05-08 10:50:00,53.1,52.0,30.30,SE,135,7.9,9.3,98,0.00,,,0.00,Rainwise IP-100,2013-05-08 14:50:00,
2013-05-08 10:55:00,53.4,53.0,30.30,SE,135,6.3,9.6,98,0.00,,,0.00,Rainwise IP-100,2013-05-08 14:55:00,
2013-05-08 11:00:00,54.2,53.5,30.29,SE,135,6.8,7.7,97,0.00,,,0.00,Rainwise IP-100,2013-05-08 15:00:00,
2013-05-08 11:05:00,55.2,54.0,30.30,SE,135,5.4,7.5,96,0.00,,,0.00,Rainwise IP-100,2013-05-08 15:05:00,
2013-05-08 11:10:00,56.2,54.5,30.30,ESE,112,8.2,8.2,96,0.00,,,0.00,Rainwise IP-100,2013-05-08 15:10:00,
2013-05-08 11:15:00,56.6,55.0,30.30,SE,135,8.9,12.1,95,0.00,,,0.00,Rainwise IP-100,2013-05-08 15:15:00,
2013-05-08 11:20:00,55.9,54.0,30.30,SSE,157,5.6,11.7,94,0.00,,,0.00,Rainwise IP-100,2013-05-08 15:20:00,
2013-05-08 11:25:00,55.1,54.0,30.30,ESE,112,7.5,13.3,95,0.00,,,0.00,Rainwise IP-100,2013-05-08 15:25:00,
2013-05-08 11:30:00,54.8,54.0,30.29,ESE,112,9.6,12.8,96,0.00,,,0.00,Rainwise IP-100,2013-05-08 15:30:00,
2013-05-08 11:35:00,54.5,54.0,30.29,ESE,112,9.3,14.0,97,0.00,,,0.00,Rainwise IP-100,2013-05-08 15:35:00,
2013-05-08 11:40:00,54.2,53.5,30.29,SSE,157,10.5,16.1,97,0.00,,,0.00,Rainwise IP-100,2013-05-08 15:40:00,
2013-05-08 11:45:00,54.3,54.0,30.29,SSE,157,11.2,16.1,97,0.00,,,0.00,Rainwise IP-100,2013-05-08 15:45:00,
2013-05-08 11:50:00,54.3,54.0,30.29,SE,135,8.9,14.2,98,0.00,,,0.00,Rainwise IP-100,2013-05-08 15:50:00,
2013-05-08 11:55:00,54.7,54.0,30.30,SSE,157,7.9,14.0,98,0.00,,,0.00,Rainwise IP-100,2013-05-08 15:55:00,
2013-05-08 12:00:00,54.9,54.5,30.29,SSE,157,9.8,14.7,97,0.00,,,0.00,Rainwise IP-100,2013-05-08 16:00:00,
2013-05-08 12:05:00,54.6,53.5,30.30,SE,135,7.0,13.1,96,0.00,,,0.00,Rainwise IP-100,2013-05-08 16:05:00,
2013-05-08 12:10:00,54.7,53.5,30.30,ESE,112,8.9,11.9,96,0.00,,,0.00,Rainwise IP-100,2013-05-08 16:10:00,
2013-05-08 12:15:00,54.6,53.5,30.30,SSE,157,8.9,16.3,96,0.00,,,0.00,Rainwise IP-100,2013-05-08 16:15:00,
2013-05-08 12:20:00,53.8,53.0,30.29,SE,135,9.6,15.6,96,0.00,,,0.00,Rainwise IP-100,2013-05-08 16:20:00,
2013-05-08 12:25:00,53.6,52.0,30.29,SE,135,10.0,13.5,96,0.00,,,0.00,Rainwise IP-100,2013-05-08 16:25:00,
2013-05-08 12:30:00,53.4,52.0,30.29,South,180,11.2,14.9,96,0.00,,,0.00,Rainwise IP-100,2013-05-08 16:30:00,
2013-05-08 12:35:00,52.9,51.0,30.29,SE,135,9.8,15.6,96,0.00,,,0.00,Rainwise IP-100,2013-05-08 16:35:00,
2013-05-08 12:40:00,52.8,51.0,30.29,SE,135,9.3,16.6,96,0.00,,,0.00,Rainwise IP-100,2013-05-08 16:40:00,
2013-05-08 12:45:00,53.1,51.0,30.30,SSE,157,15.9,16.6,96,0.00,,,0.00,Rainwise IP-100,2013-05-08 16:45:00,
2013-05-08 12:50:00,53.1,51.0,30.29,SSE,157,5.6,15.9,96,0.00,,,0.00,Rainwise IP-100,2013-05-08 16:50:00,
2013-05-08 12:55:00,53.3,52.0,30.29,SE,135,8.6,12.4,96,0.00,,,0.00,Rainwise IP-100,2013-05-08 16:55:00,
2013-05-08 13:00:00,53.9,53.0,30.29,ESE,112,9.8,14.0,95,0.00,,,0.00,Rainwise IP-100,2013-05-08 17:00:00,
2013-05-08 13:05:00,54.0,53.0,30.29,SSE,157,10.5,15.9,95,0.00,,,0.00,Rainwise IP-100,2013-05-08 17:05:00,
2013-05-08 13:10:00,54.1,53.0,30.29,SE,135,11.0,12.6,95,0.00,,,0.00,Rainwise IP-100,2013-05-08 17:10:00,
2013-05-08 13:15:00,54.5,53.5,30.29,ESE,112,10.0,14.0,95,0.00,,,0.00,Rainwise IP-100,2013-05-08 17:15:00,
2013-05-08 13:20:00,54.7,53.0,30.28,SE,135,11.4,14.2,94,0.00,,,0.00,Rainwise IP-100,2013-05-08 17:20:00,
2013-05-08 13:25:00,54.6,53.0,30.29,SE,135,11.2,15.2,94,0.00,,,0.00,Rainwise IP-100,2013-05-08 17:25:00,
2013-05-08 13:30:00,54.3,53.0,30.28,SE,135,11.7,15.2,94,0.00,,,0.00,Rainwise IP-100,2013-05-08 17:30:00,
2013-05-08 13:35:00,54.2,53.0,30.29,ESE,112,11.2,14.2,95,0.00,,,0.00,Rainwise IP-100,2013-05-08 17:35:00,
2013-05-08 13:40:00,54.4,53.5,30.29,SE,135,8.4,15.2,95,0.00,,,0.00,Rainwise IP-100,2013-05-08 17:40:00,
2013-05-08 13:45:00,54.5,53.5,30.28,ESE,112,10.7,13.1,95,0.00,,,0.00,Rainwise IP-100,2013-05-08 17:45:00,
2013-05-08 13:50:00,54.6,53.5,30.29,ESE,112,10.5,14.2,95,0.00,,,0.00,Rainwise IP-100,2013-05-08 17:50:00,
2013-05-08 13:55:00,54.7,53.0,30.29,South,180,4.2,13.8,94,0.00,,,0.00,Rainwise IP-100,2013-05-08 17:55:00,
2013-05-08 14:00:00,54.6,53.0,30.28,SSE,157,12.6,15.6,94,0.00,,,0.00,Rainwise IP-100,2013-05-08 18:00:00,
2013-05-08 14:05:00,54.4,53.0,30.28,SE,135,6.3,15.6,94,0.00,,,0.00,Rainwise IP-100,2013-05-08 18:05:00,
2013-05-08 14:10:00,54.5,53.0,30.28,SSE,157,6.5,14.5,94,0.00,,,0.00,Rainwise IP-100,2013-05-08 18:10:00,
2013-05-08 14:15:00,54.7,53.0,30.28,SE,135,8.9,14.9,94,0.00,,,0.00,Rainwise IP-100,2013-05-08 18:15:00,
2013-05-08 14:20:00,54.6,53.0,30.28,SE,135,10.0,14.2,94,0.00,,,0.00,Rainwise IP-100,2013-05-08 18:20:00,
2013-05-08 14:25:00,54.4,53.0,30.28,SE,135,8.6,15.4,94,0.00,,,0.00,Rainwise IP-100,2013-05-08 18:25:00,
2013-05-08 14:30:00,54.4,53.0,30.28,SSE,157,10.0,18.4,94,0.00,,,0.00,Rainwise IP-100,2013-05-08 18:30:00,
2013-05-08 14:35:00,54.6,53.0,30.28,SSE,157,8.2,16.1,94,0.00,,,0.00,Rainwise IP-100,2013-05-08 18:35:00,
2013-05-08 14:40:00,54.8,53.5,30.28,SE,135,14.7,15.6,94,0.00,,,0.00,Rainwise IP-100,2013-05-08 18:40:00,
2013-05-08 14:45:00,54.8,53.5,30.28,SE,135,6.8,15.4,93,0.00,,,0.00,Rainwise IP-100,2013-05-08 18:45:00,
2013-05-08 14:50:00,54.8,53.5,30.28,SE,135,11.0,15.2,93,0.00,,,0.00,Rainwise IP-100,2013-05-08 18:50:00,
2013-05-08 14:55:00,54.6,53.0,30.28,ESE,112,13.3,17.5,93,0.00,,,0.00,Rainwise IP-100,2013-05-08 18:55:00,
2013-05-08 15:00:00,54.4,53.0,30.27,SE,135,13.1,17.3,93,0.00,,,0.00,Rainwise IP-100,2013-05-08 19:00:00,
2013-05-08 15:05:00,54.2,52.0,30.26,SE,135,11.7,16.6,94,0.00,,,0.00,Rainwise IP-100,2013-05-08 19:05:00,
2013-05-08 15:10:00,53.8,52.0,30.27,SE,135,11.4,15.2,94,0.00,,,0.00,Rainwise IP-100,2013-05-08 19:10:00,
2013-05-08 15:15:00,53.6,52.0,30.27,SE,135,8.4,15.6,94,0.00,,,0.00,Rainwise IP-100,2013-05-08 19:15:00,
2013-05-08 15:20:00,53.6,52.0,30.27,SE,135,12.4,15.6,95,0.00,,,0.00,Rainwise IP-100,2013-05-08 19:20:00,
2013-05-08 15:25:00,53.7,52.0,30.27,SE,135,12.6,17.0,95,0.00,,,0.00,Rainwise IP-100,2013-05-08 19:25:00,
2013-05-08 15:30:00,53.6,52.0,30.26,SE,135,13.3,15.9,95,0.00,,,0.00,Rainwise IP-100,2013-05-08 19:30:00,
2013-05-08 15:35:00,53.3,52.0,30.27,SE,135,9.1,16.6,95,0.00,,,0.00,Rainwise IP-100,2013-05-08 19:35:00,
2013-05-08 15:40:00,53.0,51.0,30.26,SE,135,11.0,15.9,96,0.00,,,0.00,Rainwise IP-100,2013-05-08 19:40:00,
2013-05-08 15:45:00,52.8,51.0,30.27,SE,135,12.1,18.2,96,0.00,,,0.00,Rainwise IP-100,2013-05-08 19:45:00,
2013-05-08 15:50:00,52.6,52.0,30.26,SE,135,11.9,13.8,97,0.00,,,0.00,Rainwise IP-100,2013-05-08 19:50:00,
2013-05-08 15:55:00,52.7,52.0,30.26,ESE,112,7.2,15.9,98,0.00,,,0.00,Rainwise IP-100,2013-05-08 19:55:00,
2013-05-08 16:00:00,52.8,52.0,30.26,ESE,112,12.6,14.7,98,0.00,,,0.00,Rainwise IP-100,2013-05-08 20:00:00,
2013-05-08 16:05:00,52.8,52.0,30.26,SE,135,14.2,14.2,98,0.00,,,0.00,Rainwise IP-100,2013-05-08 20:05:00,
2013-05-08 16:10:00,52.8,52.0,30.26,SE,135,10.3,15.4,98,0.00,,,0.00,Rainwise IP-100,2013-05-08 20:10:00,
2013-05-08 16:15:00,52.9,53.0,30.26,ESE,112,9.6,16.1,99,0.00,,,0.00,Rainwise IP-100,2013-05-08 20:15:00,
2013-05-08 16:20:00,52.9,53.0,30.25,ESE,112,10.5,16.1,99,0.00,,,0.00,Rainwise IP-100,2013-05-08 20:20:00,
2013-05-08 16:25:00,52.9,53.0,30.26,ESE,112,16.8,17.0,99,0.00,,,0.00,Rainwise IP-100,2013-05-08 20:25:00,
2013-05-08 16:30:00,52.8,53.0,30.26,ESE,112,13.1,17.0,99,0.00,,,0.00,Rainwise IP-100,2013-05-08 20:30:00,
2013-05-08 16:35:00,52.6,53.0,30.26,ESE,112,8.2,15.6,99,0.00,,,0.00,Rainwise IP-100,2013-05-08 20:35:00,
2013-05-08 16:40:00,52.6,53.0,30.25,SE,135,11.7,15.9,99,0.00,,,0.00,Rainwise IP-100,2013-05-08 20:40:00,
2013-05-08 16:45:00,52.5,53.0,30.26,ESE,112,7.7,14.7,99,0.00,,,0.00,Rainwise IP-100,2013-05-08 20:45:00,
2013-05-08 16:50:00,52.6,53.0,30.26,SE,135,12.1,14.7,99,0.00,,,0.00,Rainwise IP-100,2013-05-08 20:50:00,
2013-05-08 16:55:00,52.7,53.0,30.25,SE,135,8.6,15.4,99,0.00,,,0.00,Rainwise IP-100,2013-05-08 20:55:00,
2013-05-08 17:00:00,52.7,53.0,30.26,SE,135,10.0,14.5,99,0.00,,,0.00,Rainwise IP-100,2013-05-08 21:00:00,
2013-05-08 17:05:00,52.8,53.0,30.25,SE,135,11.4,15.6,99,0.00,,,0.00,Rainwise IP-100,2013-05-08 21:05:00,
2013-05-08 17:10:00,52.8,53.0,30.26,SE,135,11.2,15.4,99,0.00,,,0.00,Rainwise IP-100,2013-05-08 21:10:00,
2013-05-08 17:15:00,52.7,53.0,30.25,ESE,112,12.8,16.3,99,0.00,,,0.00,Rainwise IP-100,2013-05-08 21:15:00,
2013-05-08 17:20:00,52.6,53.0,30.25,SE,135,11.0,16.1,99,0.00,,,0.00,Rainwise IP-100,2013-05-08 21:20:00,
2013-05-08 17:25:00,52.5,53.0,30.25,SE,135,7.2,13.8,99,0.00,,,0.00,Rainwise IP-100,2013-05-08 21:25:00,
2013-05-08 17:30:00,52.5,53.0,30.25,SE,135,10.5,14.9,99,0.00,,,0.00,Rainwise IP-100,2013-05-08 21:30:00,
2013-05-08 17:35:00,52.6,53.0,30.25,SE,135,7.9,13.8,99,0.00,,,0.00,Rainwise IP-100,2013-05-08 21:35:00,
2013-05-08 17:40:00,52.6,53.0,30.24,SE,135,11.4,12.8,99,0.00,,,0.00,Rainwise IP-100,2013-05-08 21:40:00,
2013-05-08 17:45:00,52.6,53.0,30.25,ESE,112,8.6,12.8,100,0.00,,,0.00,Rainwise IP-100,2013-05-08 21:45:00,
2013-05-08 17:50:00,52.5,53.0,30.24,ESE,112,8.2,12.8,100,0.00,,,0.00,Rainwise IP-100,2013-05-08 21:50:00,
2013-05-08 17:55:00,52.4,52.0,30.24,SE,135,12.4,12.6,100,0.00,,,0.00,Rainwise IP-100,2013-05-08 21:55:00,
2013-05-08 18:00:00,52.3,52.0,30.25,ESE,112,11.4,15.4,100,0.00,,,0.00,Rainwise IP-100,2013-05-08 22:00:00,
2013-05-08 18:05:00,52.5,53.0,30.24,SSE,157,8.2,15.2,100,0.00,,,0.00,Rainwise IP-100,2013-05-08 22:05:00,
2013-05-08 18:10:00,52.7,53.0,30.24,SSE,157,13.5,13.5,100,0.00,,,0.00,Rainwise IP-100,2013-05-08 22:10:00,
2013-05-08 18:15:00,52.8,53.0,30.24,ESE,112,8.9,14.7,100,0.00,,,0.00,Rainwise IP-100,2013-05-08 22:15:00,
2013-05-08 18:20:00,52.8,53.0,30.24,SE,135,10.0,13.8,100,0.00,,,0.00,Rainwise IP-100,2013-05-08 22:20:00,
2013-05-08 18:25:00,52.7,53.0,30.24,SE,135,5.6,14.0,100,0.00,,,0.00,Rainwise IP-100,2013-05-08 22:25:00,
2013-05-08 18:30:00,52.6,53.0,30.24,SE,135,7.7,13.3,100,0.00,,,0.00,Rainwise IP-100,2013-05-08 22:30:00,
2013-05-08 18:35:00,52.5,53.0,30.23,SE,135,11.2,14.2,100,0.00,,,0.00,Rainwise IP-100,2013-05-08 22:35:00,
2013-05-08 18:40:00,52.2,52.0,30.24,South,180,8.4,12.1,100,0.00,,,0.00,Rainwise IP-100,2013-05-08 22:40:00,
2013-05-08 18:45:00,52.1,52.0,30.23,ESE,112,5.6,13.8,100,0.00,,,0.00,Rainwise IP-100,2013-05-08 22:45:00,
2013-05-08 18:50:00,52.1,52.0,30.23,SE,135,9.1,13.1,100,0.00,,,0.00,Rainwise IP-100,2013-05-08 22:50:00,
2013-05-08 18:55:00,51.9,52.0,30.23,SE,135,9.1,14.9,100,0.00,,,0.00,Rainwise IP-100,2013-05-08 22:55:00,
2013-05-08 19:00:00,51.9,52.0,30.24,SE,135,6.1,11.7,100,0.00,,,0.00,Rainwise IP-100,2013-05-08 23:00:00,
2013-05-08 19:05:00,51.9,52.0,30.24,ESE,112,8.4,10.7,100,0.00,,,0.00,Rainwise IP-100,2013-05-08 23:05:00,
2013-05-08 19:10:00,51.8,52.0,30.24,SE,135,8.6,13.1,100,0.00,,,0.00,Rainwise IP-100,2013-05-08 23:10:00,
2013-05-08 19:15:00,51.8,52.0,30.24,SE,135,11.0,12.1,100,0.00,,,0.00,Rainwise IP-100,2013-05-08 23:15:00,
2013-05-08 19:20:00,51.8,52.0,30.24,SE,135,4.2,11.7,100,0.00,,,0.00,Rainwise IP-100,2013-05-08 23:20:00,
2013-05-08 19:25:00,51.9,52.0,30.24,SE,135,5.8,14.0,100,0.00,,,0.00,Rainwise IP-100,2013-05-08 23:25:00,
2013-05-08 19:30:00,51.9,52.0,30.23,ESE,112,5.4,9.3,100,0.00,,,0.00,Rainwise IP-100,2013-05-08 23:30:00,
2013-05-08 19:35:00,51.8,52.0,30.24,SE,135,1.6,9.8,100,0.00,,,0.00,Rainwise IP-100,2013-05-08 23:35:00,
2013-05-08 19:40:00,51.8,52.0,30.23,SE,135,5.8,9.1,100,0.00,,,0.00,Rainwise IP-100,2013-05-08 23:40:00,
2013-05-08 19:45:00,51.8,52.0,30.24,SE,135,5.4,8.6,100,0.00,,,0.00,Rainwise IP-100,2013-05-08 23:45:00,
2013-05-08 19:50:00,51.9,52.0,30.23,SE,135,3.0,8.2,100,0.00,,,0.00,Rainwise IP-100,2013-05-08 23:50:00,
2013-05-08 19:55:00,52.3,52.0,30.24,ESE,112,4.4,5.6,100,0.00,,,0.00,Rainwise IP-100,2013-05-08 23:55:00,
2013-05-08 20:00:00,52.5,53.0,30.24,SE,135,7.2,7.2,100,0.00,,,0.00,Rainwise IP-100,2013-05-09 00:00:00,
2013-05-08 20:05:00,52.2,52.0,30.23,SE,135,8.9,10.7,100,0.00,,,0.00,Rainwise IP-100,2013-05-09 00:05:00,
2013-05-08 20:10:00,51.8,52.0,30.23,SE,135,7.2,11.7,100,0.00,,,0.00,Rainwise IP-100,2013-05-09 00:10:00,
2013-05-08 20:15:00,51.6,52.0,30.23,SE,135,9.8,11.4,100,0.00,,,0.00,Rainwise IP-100,2013-05-09 00:15:00,
2013-05-08 20:20:00,51.3,51.0,30.23,ESE,112,7.0,11.0,100,0.00,,,0.00,Rainwise IP-100,2013-05-09 00:20:00,
2013-05-08 20:25:00,51.1,51.0,30.23,ESE,112,7.2,9.8,100,0.00,,,0.00,Rainwise IP-100,2013-05-09 00:25:00,
2013-05-08 20:30:00,51.0,51.0,30.24,SE,135,6.8,10.0,100,0.00,,,0.00,Rainwise IP-100,2013-05-09 00:30:00,
2013-05-08 20:35:00,51.0,51.0,30.24,SE,135,5.1,8.9,100,0.00,,,0.00,Rainwise IP-100,2013-05-09 00:35:00,
2013-05-08 20:40:00,51.1,51.0,30.24,SE,135,7.7,8.2,100,0.00,,,0.00,Rainwise IP-100,2013-05-09 00:40:00,
2013-05-08 20:45:00,51.3,51.0,30.24,SE,135,6.3,10.5,100,0.00,,,0.00,Rainwise IP-100,2013-05-09 00:45:00,
2013-05-08 20:50:00,51.4,51.0,30.24,SSE,157,6.8,8.2,100,0.00,,,0.00,Rainwise IP-100,2013-05-09 00:50:00,
2013-05-08 20:55:00,51.6,52.0,30.24,ESE,112,6.8,9.8,100,0.00,,,0.00,Rainwise IP-100,2013-05-09 00:55:00,
2013-05-08 21:00:00,51.7,52.0,30.24,SE,135,6.8,9.8,100,0.00,,,0.00,Rainwise IP-100,2013-05-09 01:00:00,
2013-05-08 21:05:00,51.7,52.0,30.24,SSE,157,4.7,10.5,100,0.00,,,0.00,Rainwise IP-100,2013-05-09 01:05:00,
2013-05-08 21:10:00,51.7,52.0,30.24,ESE,112,6.1,10.0,100,0.00,,,0.00,Rainwise IP-100,2013-05-09 01:10:00,
2013-05-08 21:15:00,51.7,52.0,30.24,SE,135,5.1,7.7,100,0.00,,,0.00,Rainwise IP-100,2013-05-09 01:15:00,
2013-05-08 21:20:00,51.8,52.0,30.24,SE,135,7.5,9.1,100,0.00,,,0.00,Rainwise IP-100,2013-05-09 01:20:00,
2013-05-08 21:25:00,51.9,52.0,30.24,SSE,157,5.6,9.3,100,0.00,,,0.00,Rainwise IP-100,2013-05-09 01:25:00,
2013-05-08 21:30:00,52.0,52.0,30.24,SSE,157,4.9,10.7,100,0.00,,,0.00,Rainwise IP-100,2013-05-09 01:30:00,
2013-05-08 21:35:00,52.0,52.0,30.24,SSE,157,6.5,9.8,100,0.00,,,0.00,Rainwise IP-100,2013-05-09 01:35:00,
2013-05-08 21:40:00,51.9,52.0,30.24,SSE,157,4.0,10.0,100,0.00,,,0.00,Rainwise IP-100,2013-05-09 01:40:00,
2013-05-08 21:45:00,51.9,52.0,30.24,East,90,4.9,6.1,100,0.00,,,0.00,Rainwise IP-100,2013-05-09 01:45:00,
2013-05-08 21:50:00,52.0,52.0,30.24,SE,135,6.8,8.9,100,0.00,,,0.00,Rainwise IP-100,2013-05-09 01:50:00,
2013-05-08 21:55:00,51.9,52.0,30.24,ESE,112,7.9,10.5,100,0.00,,,0.00,Rainwise IP-100,2013-05-09 01:55:00,
2013-05-08 22:00:00,51.9,52.0,30.23,SE,135,7.9,14.7,100,0.00,,,0.00,Rainwise IP-100,2013-05-09 02:00:00,
2013-05-08 22:05:00,51.9,52.0,30.24,ESE,112,7.2,10.7,100,0.00,,,0.00,Rainwise IP-100,2013-05-09 02:05:00,
2013-05-08 22:10:00,52.0,52.0,30.24,SSE,157,6.8,11.9,100,0.00,,,0.00,Rainwise IP-100,2013-05-09 02:10:00,
2013-05-08 22:15:00,52.0,52.0,30.24,SE,135,10.3,12.6,100,0.00,,,0.00,Rainwise IP-100,2013-05-09 02:15:00,
2013-05-08 22:20:00,52.0,52.0,30.23,SE,135,5.8,11.7,100,0.00,,,0.00,Rainwise IP-100,2013-05-09 02:20:00,
2013-05-08 22:25:00,52.0,52.0,30.23,SE,135,5.1,10.3,100,0.00,,,0.00,Rainwise IP-100,2013-05-09 02:25:00,
2013-05-08 22:30:00,51.8,52.0,30.24,ESE,112,5.6,11.0,100,0.00,,,0.00,Rainwise IP-100,2013-05-09 02:30:00,
2013-05-08 22:35:00,51.8,52.0,30.23,SE,135,5.1,10.5,100,0.00,,,0.00,Rainwise IP-100,2013-05-09 02:35:00,
2013-05-08 22:40:00,51.7,52.0,30.23,SSE,157,3.7,7.5,100,0.00,,,0.00,Rainwise IP-100,2013-05-09 02:40:00,
2013-05-08 22:45:00,51.7,52.0,30.22,SE,135,5.1,7.2,100,0.00,,,0.00,Rainwise IP-100,2013-05-09 02:45:00,
2013-05-08 22:50:00,51.7,52.0,30.23,South,180,3.3,7.2,100,0.00,,,0.00,Rainwise IP-100,2013-05-09 02:50:00,
2013-05-08 22:55:00,51.8,52.0,30.23,ESE,112,2.3,7.7,100,0.00,,,0.00,Rainwise IP-100,2013-05-09 02:55:00,
2013-05-08 23:00:00,51.8,52.0,30.22,SSE,157,5.1,8.9,100,0.00,,,0.00,Rainwise IP-100,2013-05-09 03:00:00,
2013-05-08 23:05:00,51.7,52.0,30.22,ESE,112,5.8,11.0,100,0.00,,,0.00,Rainwise IP-100,2013-05-09 03:05:00,
2013-05-08 23:10:00,51.7,52.0,30.23,SSE,157,5.6,9.1,100,0.00,,,0.00,Rainwise IP-100,2013-05-09 03:10:00,
2013-05-08 23:15:00,51.7,52.0,30.23,SE,135,4.4,10.5,100,0.00,,,0.00,Rainwise IP-100,2013-05-09 03:15:00,
2013-05-08 23:20:00,51.7,52.0,30.23,SE,135,7.9,10.5,100,0.00,,,0.00,Rainwise IP-100,2013-05-09 03:20:00,
2013-05-08 23:25:00,51.8,52.0,30.22,SE,135,6.8,10.3,100,0.00,,,0.00,Rainwise IP-100,2013-05-09 03:25:00,
2013-05-08 23:30:00,51.8,52.0,30.22,SE,135,7.0,9.6,100,0.00,,,0.00,Rainwise IP-100,2013-05-09 03:30:00,
2013-05-08 23:35:00,51.8,52.0,30.23,SE,135,4.9,9.6,100,0.00,,,0.00,Rainwise IP-100,2013-05-09 03:35:00,
2013-05-08 23:40:00,51.8,52.0,30.21,SE,135,5.4,8.9,100,0.00,,,0.00,Rainwise IP-100,2013-05-09 03:40:00,
2013-05-08 23:45:00,51.7,52.0,30.21,ESE,112,7.2,9.1,100,0.00,,,0.00,Rainwise IP-100,2013-05-09 03:45:00,
2013-05-08 23:50:00,51.7,52.0,30.20,ESE,112,5.4,8.9,100,0.00,,,0.00,Rainwise IP-100,2013-05-09 03:50:00,
2013-05-08 23:55:00,51.7,52.0,30.20,SE,135,4.7,7.7,100,0.00,,,0.00,Rainwise IP-100,2013-05-09 03:55:00,